Flag for Canada Weather past 2 weeks in Coral Harbour, Nunavut Territory, Canada

Now
-17 °F

Clear.


Feels Like: -41 °F
Forecast: -20 / 0 °F
Wind: 15 mph from North

Location: Coral Harbour

Current Time: Dec 18, 2014 at 12:39:49 PM

Latest Report: Dec 18, 2014 at 11:00 AM


Visibility: 15 mi

Pressure: 30.03 "Hg

Humidity: 69%

Dew point: -24 °F

Location of Coral HarbourLocation

Historic Weather in Coral Harbour — Graph

°F

Coral Harbour temperature yesterday

Maximum temperature yesterday: 9 °F (at 12:00 AM)
Minimum temperature yesterday: -2 °F (at 8:00 AM)
Average temperature yesterday: 5 °F

Past Weeks' High & Low Weather Summary

 TemperatureHumidityPressure
High16 °F (Dec 10, 6:00 PM)100% (Dec 18, 9:00 AM)30.32 "Hg (Dec 18, 9:00 AM)
Low-35 °F (Dec 5, 5:00 AM)57% (Dec 15, 12:00 PM)29.42 "Hg (Dec 11, 2:00 AM)
Average-11 °F71%29.92 "Hg
* Reported Dec 3 11:00 AM — Dec 18 11:00 AM, Coral Harbour, Weather by CustomWeather, © 2014

Note: Actual official high and low records may vary slightly from our data, if they occured in-between our weather recording intervals... More about our weather records

Advertising

Coral Harbour weather history for previous 24 hours

 ConditionsComfort  
Time TempWeatherWind HumidityBarometerVisibility
11:00 AM
Dec 18
-17 °FClear.15 mph69%30.03 "Hg15 mi
10:00 AM-17 °FPassing clouds.12 mph69%30.01 "Hg15 mi
9:00 AM-20 °FPassing clouds.7 mph100%29.98 "Hg15 mi
8:00 AM-8 °FPassing clouds.7 mph70%29.97 "Hg15 mi
7:00 AM-11 °FPassing clouds.8 mph70%29.94 "Hg15 mi
6:00 AM-11 °FLow level haze.17 mph70%29.90 "Hg15 mi
5:00 AM-6 °FLow level haze.20 mph70%29.87 "Hg15 mi
4:00 AM-2 °FPassing clouds.16 mph65%29.86 "Hg15 mi
3:00 AM0 °FPassing clouds.8 mph71%29.85 "Hg15 mi
2:00 AM7 °FLight snow. Overcast.9 mph72%29.82 "Hg15 mi
1:00 AM9 °FOvercast.8 mph78%29.81 "Hg15 mi
12:00 AM9 °FMostly cloudy.6 mph78%29.81 "Hg12 mi
11:00 PM
Dec 17
9 °FMostly cloudy.10 mph78%29.79 "Hg12 mi
10:00 PM7 °FMostly cloudy.9 mph72%29.79 "Hg12 mi
9:00 PM5 °FMostly cloudy.10 mph78%29.78 "Hg12 mi
8:00 PM7 °FMostly cloudy.10 mph72%29.79 "Hg12 mi
7:00 PM7 °FMostly cloudy.8 mph78%29.79 "Hg12 mi
6:00 PM7 °FMostly cloudy.14 mph72%29.80 "Hg12 mi
5:00 PM5 °FMostly cloudy.15 mph78%29.81 "Hg12 mi
4:00 PM3 °FLight snow. Passing clouds.10 mph78%29.83 "Hg8 mi
3:00 PM3 °FLight snow. Passing clouds.12 mph78%29.82 "Hg8 mi
2:00 PM3 °FPassing clouds.14 mph72%29.81 "Hg15 mi
1:00 PM3 °FPartly sunny.8 mph72%29.83 "Hg15 mi
12:00 PM0 °FBroken clouds.17 mph84%29.83 "Hg15 mi
Weather by CustomWeather, © 2014

See weather overviewHow to use our weather pages